This is the latest recevied weather packets stored in our database for station/object N4QEP-13. If no packets are shown the sender has not sent any weather packets the latest 10 day(s).
| Time | Temp. | Humidity | Pressure | Rain* | Wind** | Luminosity | Snow |
|---|---|---|---|---|---|---|---|
| 1778047222 | 17.78° C | 80% | 1014.4 hPa | 0 mm | - | - | - |
| 1778046318 | 18.33° C | 80% | 1014.7 hPa | 0 mm | - | - | - |
| 1778045423 | 17.78° C | 79% | 1014.7 hPa | 0 mm | - | - | - |
| 1778043616 | 17.78° C | 78% | 1014.9 hPa | 0 mm | - | - | - |
| 1778042713 | 17.78° C | 77% | 1015.1 hPa | 0 mm | - | - | - |
| 1778041813 | 18.33° C | 77% | 1015.1 hPa | 0 mm | - | - | - |
| 1778040014 | 18.33° C | 75% | 1015.4 hPa | 0 mm | - | - | - |
| 1778039114 | 18.33° C | 73% | 1015.3 hPa | 0 mm | - | - | - |
| 1778038216 | 18.33° C | 73% | 1015.5 hPa | 0 mm | - | - | - |
| 1778036450 | 18.89° C | 70% | 1015.4 hPa | 0 mm | - | - | - |
| 1778035558 | 18.89° C | 70% | 1015.4 hPa | 0 mm | - | - | - |
| 1778034619 | 19.44° C | 68% | 1015.2 hPa | 0 mm | - | - | - |
| 1778033722 | 19.44° C | 68% | 1015.1 hPa | 0 mm | - | - | - |
| 1778032848 | 20° C | 67% | 1014.9 hPa | 0 mm | - | - | - |
| 1778031947 | 20° C | 67% | 1015 hPa | 0 mm | - | - | - |
| 1778031019 | 20.56° C | 67% | 1015.1 hPa | 0 mm | - | - | - |
| 1778030117 | 20.56° C | 68% | 1015.1 hPa | 0 mm | - | - | - |
| 1778029215 | 21.11° C | 67% | 1014.8 hPa | 0 mm | - | - | - |
| 1778028314 | 21.67° C | 66% | 1014.7 hPa | 0 mm | - | - | - |
| 1778027416 | 21.67° C | 65% | 1014.8 hPa | 0 mm | - | - | - |
| 1778026514 | 22.22° C | 63% | 1014.7 hPa | 0 mm | - | - | - |
| 1778025611 | 22.78° C | 62% | 1014.8 hPa | 0 mm | - | - | - |
| 1778024709 | 23.33° C | 60% | 1014.8 hPa | 0 mm | - | - | - |
| 1778023809 | 23.89° C | 58% | 1014.7 hPa | 0 mm | - | - | - |
| 1778022910 | 24.44° C | 57% | 1014.5 hPa | 0 mm | - | - | - |
* Rain latest hour (hover to see other rain measurements)
** Current wind speed in m/s (hover to see current wind gust speed)